Volver al catálogo

FENGYUN 1C DEB *

LostSSO
NORAD 47014·DEBRIS·🇨🇳 China

Lanzado May 10, 1999 desde Taiyuan Satellite Launch Center

Loading…

Próximos Pases (próximas 24 horas)

TLE

ObsoletoSource: Space-Track

Época: Sep 8, 2022, 03:32 UTC

1 47014U 99025FAQ 22251.14729549  .00002486  00000-0  13308-2 0  9991
2 47014  98.3959 219.5348 0115913 232.2224 189.2589 14.10589706451801

Sigue FENGYUN 1C DEB * en tiempo real con AllMySat

Download on the App Store